DW5775 Weather Reports


Display with metric or nautical units.
time (UTC)temp
F
wind
direction
speed
MPH
gust
MPH
rain 1hr
in
rain 24hr
in
rain mn
in
humidity
%
barometer
mb
20260901011520 71 204 0.0 0.0 0.00 0.03 0.03 93 1012.6
20260901010011 71 203 0.0 0.0 0.00 0.03 0.03 93 1012.4
20260901004510 71 203 0.0 0.0 0.00 0.03 0.03 93 1012.2
20260901003010 72 204 0.0 0.0 0.00 0.03 0.03 92 1012.0
20260901001509 72 204 0.0 0.0 0.00 0.03 0.03 92 1011.8
20260901000008 73 204 0.0 1.0 0.00 0.03 0.03 91 1011.9
20260831234507 74 195 0.0 0.0 0.00 0.03 0.03 91 1012.0
20260831233006 74 212 0.0 2.0 0.01 0.03 0.03 90 1012.1
20260831231504 75 170 0.0 2.0 0.01 0.03 0.03 90 1012.2
20260831230004 75 305 0.0 1.0 0.01 0.03 0.03 90 1012.2
20260831224502 75 105 0.0 2.0 0.01 0.03 0.03 90 1012.5
20260831223102 75 153 0.0 1.0 0.00 0.02 0.02 89 1013.0
20260831221603 75 274 0.0 2.0 0.00 0.02 0.02 88 1013.1
20260831220114 76 208 0.0 2.0 0.00 0.02 0.02 85 1013.1
20260831214559 77 300 0.0 2.0 0.00 0.03 0.02 80 1013.2
20260831213103 79 124 2.0 8.0 0.00 0.03 0.02 78 1013.9
20260831211603 79 216 0.0 4.0 0.00 0.03 0.02 78 1013.7
20260831210052 79 156 0.0 2.0 0.00 0.03 0.02 76 1013.6
20260831204555 80 211 0.0 1.0 0.00 0.04 0.02 74 1013.7
20260831203052 81 108 0.0 1.0 0.00 0.04 0.02 72 1014.0
20260831201549 81 122 0.0 1.0 0.00 0.04 0.02 71 1013.8
20260831200053 81 142 0.0 1.0 0.00 0.04 0.02 71 1013.9
20260831194547 81 53 0.0 2.0 0.00 0.04 0.02 71 1014.2
20260831193046 80 207 0.0 2.0 0.00 0.04 0.02 73 1014.4
20260831191544 82 55 0.0 1.0 0.00 0.04 0.02 71 1014.8
20260831184540 84 87 0.0 4.0 0.00 0.04 0.02 71 1014.5
20260831183039 82 324 0.0 3.0 0.00 0.04 0.02 71 1014.3
20260831181533 81 200 1.0 3.0 0.00 0.04 0.02 75 1014.4
20260831180042 80 146 0.0 3.0 0.00 0.04 0.02 79 1014.5
20260831174526 79 193 1.0 4.0 0.00 0.04 0.02 81 1014.6
20260831173023 76 58 0.0 1.0 0.00 0.04 0.02 90 1014.9
20260831171522 75 58 0.0 0.0 0.01 0.04 0.02 93 1014.8
20260831170021 74 58 0.0 0.0 0.02 0.04 0.02 93 1015.2
20260831164537 74 58 0.0 1.0 0.02 0.04 0.02 91 1015.5
20260831163023 74 58 0.0 0.0 0.02 0.04 0.02 89 1016.2
20260831161520 76 58 0.0 0.0 0.01 0.03 0.01 86 1016.2
20260831160018 76 58 0.0 0.0 0.00 0.02 0.00 85 1016.1
20260831154517 76 58 0.0 2.0 0.00 0.05 0.00 86 1016.0
20260831153014 76 312 0.0 0.0 0.00 0.05 0.00 90 1016.0
20260831151513 75 310 0.0 0.0 0.00 0.05 0.00 91 1015.8
20260831150010 74 311 0.0 1.0 0.00 0.05 0.00 91 1015.5
20260831144512 74 310 0.0 0.0 0.00 0.15 0.00 92 1015.2
20260831143111 74 310 0.0 0.0 0.00 0.15 0.00 93 1015.2
20260831141610 73 310 0.0 0.0 0.00 0.15 0.00 93 1015.1
20260831140053 72 310 0.0 0.0 0.00 0.15 0.00 95 1015.2
20260831134554 72 311 0.0 0.0 0.00 0.23 0.00 96 1015.1
20260831133047 71 312 0.0 0.0 0.00 0.23 0.00 96 1015.0
20260831131544 70 311 0.0 0.0 0.00 0.23 0.00 96 1015.0
20260831130047 69 311 0.0 0.0 0.00 0.23 0.00 96 1014.9
20260831124541 69 312 0.0 0.0 0.00 0.27 0.00 96 1015.0
20260831123039 69 312 0.0 0.0 0.00 0.27 0.00 96 1014.9
20260831121538 68 312 0.0 0.0 0.00 0.27 0.00 96 1014.8
20260831120040 68 311 0.0 0.0 0.00 0.27 0.00 96 1014.8
20260831114537 68 312 0.0 0.0 0.00 0.27 0.00 96 1015.0
20260831113037 68 312 0.0 0.0 0.00 0.27 0.00 96 1015.0
20260831111549 68 311 0.0 0.0 0.00 0.27 0.00 96 1014.9
20260831110044 68 312 0.0 0.0 0.00 0.27 0.00 96 1014.9
20260831104549 68 312 0.0 0.0 0.00 0.27 0.00 96 1014.8
20260831103037 68 312 0.0 0.0 0.00 0.27 0.00 96 1014.8
20260831101535 68 311 0.0 0.0 0.00 0.27 0.00 96 1015.0
20260831100033 68 312 0.0 0.0 0.00 0.27 0.00 96 1014.7
20260831094533 68 312 0.0 0.0 0.00 0.32 0.00 96 1014.6
20260831093044 68 312 0.0 1.0 0.00 0.32 0.00 96 1014.7
20260831091531 68 312 0.0 1.0 0.00 0.32 0.00 96 1014.7
20260831090036 68 307 0.0 3.0 0.00 0.32 0.00 96 1014.6
20260831084531 67 267 0.0 0.0 0.00 0.33 0.00 96 1014.6
20260831083029 67 267 0.0 0.0 0.00 0.33 0.00 96 1014.6
20260831081528 67 267 0.0 0.0 0.00 0.33 0.00 96 1014.5
20260831080029 67 266 0.0 0.0 0.00 0.33 0.00 96 1014.4
20260831074526 67 267 0.0 0.0 0.00 0.33 0.00 96 1014.5
20260831073023 67 267 0.0 0.0 0.00 0.33 0.00 96 1014.7
20260831071529 67 267 0.0 0.0 0.00 0.33 0.00 96 1014.8
20260831070021 67 267 0.0 0.0 0.00 0.33 0.00 96 1014.9
20260831064521 67 267 0.0 0.0 0.00 0.33 0.00 96 1015.2
20260831063019 67 267 0.0 0.0 0.00 0.33 0.00 96 1015.2
20260831061518 67 267 0.0 0.0 0.00 0.33 0.00 96 1015.1
20260831060017 67 267 0.0 0.0 0.00 0.33 0.00 96 1015.1
20260831054516 68 267 0.0 0.0 0.00 0.33 0.00 96 1015.2
20260831053020 68 267 0.0 0.0 0.00 0.33 0.00 95 1015.4
20260831051513 68 267 0.0 0.0 0.00 0.33 0.00 95 1015.4
20260831050015 68 267 0.0 0.0 0.00 0.33 0.00 95 1015.3
20260831044510 68 267 0.0 0.0 0.00 0.33 0.00 95 1015.5
20260831043008 68 267 0.0 0.0 0.00 0.33 0.00 95 1015.5
20260831041508 68 267 0.0 2.0 0.00 0.33 0.00 95 1015.5
20260831040006 68 198 0.0 0.0 0.00 0.33 0.00 95 1015.6
20260831034504 68 198 0.0 0.0 0.00 0.33 0.33 95 1015.7
20260831033008 68 198 0.0 0.0 0.00 0.33 0.33 94 1015.5
20260831031511 68 198 0.0 0.0 0.00 0.33 0.33 94 1015.6
20260831030003 68 198 0.0 0.0 0.00 0.33 0.33 94 1015.4
20260831024502 68 198 0.0 0.0 0.00 0.33 0.33 94 1015.4
20260831023001 69 198 0.0 1.0 0.00 0.33 0.33 94 1015.4
20260831021600 69 199 0.0 0.0 0.00 0.33 0.33 94 1015.4
20260831020059 68 198 0.0 0.0 0.00 0.33 0.33 94 1015.4
20260831014559 68 195 0.0 0.0 0.00 0.33 0.33 94 1015.3
20260831013058 68 188 0.0 0.0 0.00 0.33 0.33 94 1015.1